www.pogodaiklimat.ru

Погода и климат >> Архив погоды >> Парагвай >> Pilar


ПОГОДА в Pilar

  • Прогноз погоды в Pilar
  • Монитор погоды в Pilar
  • Климат города

АРХИВ ПОГОДЫ в Pilar

Время (UTC), дата Ветер
(напр.,м/с)
 
Видим.   Явления Облачность Т
(С)
Тd
(С)
f
(%)
Тe
(С)
Тes
(С)
Комфортность P
(гПа)
Po
(гПа)
Тmin
(С)
Tmax
(С)
R
(мм)
R24
(мм)
S
(см)
03 8.08 СВ 3 20 км 10/10 800 м
[Sc]
+20.6 +16.0 75 +24 +24 комфорт 1009.0 1002.2
06 8.08 ЮЗ 3 20 км 10/10 800 м
[Sc]
+19.8 +16.7 82 +23 +23 комфорт 1011.1 1004.3
09 8.08 З 3 20 км 8/4 800 м
[Sc]
+18.6 +16.0 85 +20 +20 1013.5 1006.7
12 8.08 Ю 5 20 км {морось} 10/5 800 м
[Sc Ac As]
+13.4 +11.1 86 +11 +12 1018.7 1011.7 +11.8 0.5
15 8.08 ЮЗ 6 20 км 10/5 800 м
[Sc Ac As]
+15.6 +12.3 81 +14 +15 1021.4 1014.4
18 8.08 ЮЗ 4 20 км 10/3 800 м
[Sc Ac As]
+17.2 +12.9 76 +17 +18 1021.4 1014.5
21 8.08 ЮЗ 4 20 км 3/0 1500 м
[Ac trans]
+17.6 +14.8 84 +17 +18 1020.7 1013.8
00 9.08 Ю 3 20 км ясно +14.0 +10.1 77 +13 +13 1022.4 1015.4 +23.0
09 9.08 Ю 2 20 км ясно +7.6 +5.8 88 +5 +5 1023.8 1016.6
12 9.08 З 4 20 км 3/0
[Ci]
+8.0 +5.8 86 +5 +6 1024.7 1017.5 +7.0
15 9.08 ЮЗ 5 20 км 3/3 1200 м
[Cu hum]
+12.6 +4.7 59 +11 +15 1025.4 1018.4
18 9.08 Ю 4 20 км 1/1 1200 м
[Cu hum]
+16.0 +6.1 52 +15 +21 1023.4 1016.4
21 9.08 Ю 4 20 км ясно +15.4 +6.8 56 +14 +15 1022.3 1015.3
00 10.08 Ю 2 20 км ясно +10.8 +7.5 80 +9 +9 1022.5 1015.4 +18.5
03 10.08 Ю 2 20 км ясно +8.6 +6.8 88 +7 +7 1023.2 1016.1
06 10.08 штиль 0 20 км ясно +6.0 +3.6 85 +5 +5 1022.7 1015.5
09 10.08 штиль 0 5000 м дымка ясно +3.4 +0.3 80 +2 +2 1022.0 1014.7
12 10.08 Ю 2 <100 м туман ?/? +4.8 +2.8 87 +2 +2 1023.3 1016.1 +2.8
15 10.08 Ю 2 5000 м дымка {туман} 6/6 300 м
[Sc]
+9.0 +6.6 85 +7 +12 1024.3 1017.2
18 10.08 С 2 20 км 4/0
[Ci]
+15.6 +5.6 51 +16 +24 1021.5 1014.5
21 10.08 штиль 0 20 км 4/0
[Ci]
+16.0 +5.9 51 +16 +16 1020.9 1013.9
00 11.08 штиль 0 20 км ясно +10.6 +7.2 79 +10 +10 1020.6 1013.5 +18.5
03 11.08 штиль 0 20 км ясно +7.8 +5.8 87 +7 +7 1020.2 1013.0
09 11.08 штиль 0 20 км ясно +4.0 +1.7 85 +3 +3 1021.0 1013.7
12 11.08 ЮВ 1 10 км дымка ясно +6.8 +4.7 86 +6 +9 1022.0 1014.8 +2.8
15 11.08 В 4 20 км ясно +15.6 +6.6 55 +15 +24 1022.4 1015.4
18 11.08 В 4 20 км ясно +20.6 +7.3 42 +23 +29 комфорт 1021.7 1014.9
21 11.08 В 3 20 км ясно +19.4 +6.6 43 +20 +21 1019.9 1013.0
00 12.08 В 1 20 км ясно +15.0 +4.2 48 +16 +16 1017.6 1010.6 +22.0
03 12.08 В 1 20 км ясно +12.6 +7.2 70 +13 +13 1018.9 1011.8
06 12.08 В 1 20 км ясно +8.0 +3.3 72 +7 +7 1019.4 1012.2
09 12.08 штиль 0 20 км ясно +5.0 +0.3 72 +4 +4 1019.4 1012.2
12 12.08 штиль 0 20 км ясно +12.0 +7.9 76 +12 +15 1017.8 1010.7 +5.0
15 12.08 СВ 4 20 км ясно +21.4 +15.7 70 +25 +33 комфорт 1018.4 1011.6
18 12.08 СВ 4 20 км ясно +25.2 +18.6 67 +30 +36 душно 1019.1 1012.4
21 12.08 СВ 2 20 км ясно +24.0 +13.8 53 +26 +27 жарко 1016.1 1009.4
00 13.08 СВ 1 20 км ясно +20.0 +14.9 72 +23 +23 комфорт 1016.0 1009.2 +26.0
03 13.08 СВ 1 20 км ясно +17.0 +11.5 70 +18 +18 1014.8 1007.9
06 13.08 штиль 0 20 км ясно +15.0 +11.2 78 +15 +15 1014.8 1007.9
09 13.08 В 2 20 км ясно +13.0 +9.0 77 +12 +12 1014.8 1008.8
12 13.08 СВ 3 20 км ясно +16.0 +8.9 63 +16 +18 1013.3 1006.4 +11.0
15 13.08 С 6 20 км ясно +26.0 +18.1 62 +31 +36 очень
душно
1013.1 1006.4
18 13.08 С 6 20 км ясно +31.2 +18.5 47 +36 +40 очень
душно
1010.7 1004.2
21 13.08 С 3 20 км ясно +30.6 +19.1 50 +36 +36 очень
душно
1009.4 1002.8
00 14.08 СВ 3 20 км ясно +27.0 +21.0 70 +34 +34 очень
душно
1011.1 1004.5 +32.0
03 14.08 СВ 2 20 км ясно +19.6 +13.3 67 +22 +22 комфорт 1012.0 1005.2
06 14.08 СВ 4 20 км ясно +17.0 +15.3 90 +16 +16 1012.4 1005.5
09 14.08 СВ 4 20 км ясно +15.0 +13.2 89 +14 +14 1012.4 1005.5
12 14.08 З 4 20 км 8/5 800 м
[Sc Ac As]
+19.0 +13.7 71 +20 +21 1017.9 1011.0 +13.0
15 14.08 Ю 3 20 км 10/10 500 м
[Sc]
+18.0 +14.5 80 +18 +18 1020.8 1013.9
18 14.08 Ю 3 20 км 10/10 500 м
[Sc]
+18.4 +14.4 78 +19 +19 1021.3 1014.4
21 14.08 Ю 3 10 км слабая морось 10/10 500 м
[Sc]
+15.2 +13.0 87 +15 +15 1021.3 1014.3 2
00 15.08 Ю 6 20 км 10/10 500 м
[Sc]
+15.0 +11.2 78 +13 +13 1021.6 1014.6 +27.0

 

Местоположение метеостанции Pilar (Парагвай): широта -26.85 долгота -58.31 высота над уровнем моря 56 м.

В архиве по умолчанию представлена погода в Pilar за последнюю неделю. Архивные данные за месяц целиком и за предыдущие месяцы, начиная с января 2011 года, Вы можете получить, выбрав интересующий диапазон дат из раскрывающегося списка и нажав кнопку "Ввод!".


*Определитесь, кто Вы:
робот инопланетянин человек

Внимание! Время в таблицах - всемирное. Для получения местного времени необходимо прибавить поправку, которая в Pilar равна -4 ч.

Смотрите также архив погоды в соседних городах и на ближайших метеорологических станциях:

Погода в Formosa (Аргентина) (73 км)
Погода в Corrientes (Аргентина) (80 км)
Погода в Resistencia (Аргентина) (99 км)
Погода в San Juan Bautista Misiones (Парагвай) (117 км)
Погода в Quyquyhat (Парагвай) (150 км)
Погода в Paraguari (Парагвай) (180 км)
Погода в Asuncion (Парагвай) (195 км)
Погода в Caazapa (Парагвай) (209 км)
Погода в Presidencia Roque Saenz Pena (Аргентина) (216 км)
Погода в Villarrica (Парагвай) (224 км)

Пояснения к столбцам:

Ветер - указаны скорость ветра в м/с - средняя за 10 мин, порывы в срок и между сроками (в фигурных скобках) и направление, откуда дует ветер: С - северный, СВ - северо-восточный, В - восточный, ЮВ - юго-восточный, Ю - южный, ЮЗ - юго-западный, З - западный, СЗ - северо-западный.
Видимость - горизонтальная дальность видимости в метрах или километрах. При видимости от 1 до 10 км при отсутствии осадков обычно наблюдается дымка, при ухудшении видимости до 1 км и менее - туман. В сухую погоду видимость может ухудшаться дымом, пылью или мглою.
Явления - указаны атмосферные явления, наблюдавшиеся в срок или в последний час перед сроком; фигурными скобками обозначены явления, наблюдавшиеся между сроками (за 1-3 часа до срока); квадратными скобками обозначены град или гололедные отложения с указанием их диаметра в мм.
Облачность - указаны через наклонную черту общая и нижняя облачность в баллах и высота нижней границы облаков в метрах; квадратными скобками обозначены формы облаков: Ci - перистые, Cs - перисто-слоистые, Cc - перисто-кучевые, Ac - высококучевые, As - высокослоистые, Sc - слоисто-кучевые, Ns - слоисто-дождевые, Cu - кучевые, Cb - кучево-дождевые. Подробнее классификацию облаков см. в Атласе облаков (PDF).
T - Температура воздуха - температура, измеренная на высоте 2 м над землей.
Td - Температура точки росы - температура, при понижении до которой содержащийся в воздухе водяной пар достигнет насыщения.
f - Относительная влажность воздуха - влажноcть воздуха, измеренная на высоте 2 м над землей.
Te - Эффективная температура - температура, которую ощущает одетый по сезону человек в тени. Характеристика душности погоды. При расчете учитывается влияние влажности воздуха и скорости ветра на теплоощущения человека.
Tes - Эффективная температура на солнце - температура, которую ощущает человек, с поправкой на солнечный нагрев. Характеристика знойности погоды. Зависит от высоты солнца над горизонтом, облачности и скорости ветра. Ночью, в пасмурную погоду, а также при ветре 12 м/с и более поправка равна нулю.
P - Атмосферное давление - приведенное к уровню моря атмосферное давление.
Po - Атмосферное давление - измеренное на уровне метеостанции атмосферное давление.
Tmin - Минимальная температура - минимум температуры воздуха на высоте 2 м над землей.
Tmax - Максимальная температура - максимум температуры воздуха на высоте 2 м над землей.
R - Количество осадков - Количество выпавших осадков за период времени, мм. При наведении курсора мыши на число - период времени, за который выпало указанное количество осадков.
R24 - Количество осадков - Количество выпавших осадков за 24 часа, мм.
S - Снежный покров - Высота снежного покрова, см. При наведении курсора мыши на число - состояние снежного покрова и степень покрытия местности в баллах.